Abilene, TX

3:24 PM CST on December 07, 2016 (GMT -0600)
Abilene Regional

Weather History for KABI - October, 2011

Change the Weather History Date:

Monday, October 31, 2011

  Actual Average Record
Temperature  
Mean Temperature 58 °F 61 °F  
Max Temperature 76 °F 73 °F 91 °F (1934)
Min Temperature 40 °F 50 °F 23 °F (1993)
Degree Days  
Heating Degree Days 7 6  
Month to date heating degree days 76 93  
Since 1 July heating degree days 76 104  
Cooling Degree Days 0 2  
Month to date cooling degree days 145 118  
Year to date cooling degree days 3487 2389  
Growing Degree Days 8 (Base 50)    
Moisture  
Dew Point 44 °F    
Average Humidity 64    
Maximum Humidity 96    
Minimum Humidity 31    
Precipitation  
Precipitation 0.00 in 0.08 in 0.80 in (2004)
Month to date precipitation 4.09 2.98  
Year to date precipitation 14.72 22.18  
Sea Level Pressure  
Sea Level Pressure 30.13 in    
Wind  
Wind Speed 6 mph (South)    
Max Wind Speed 15 mph    
Max Gust Speed 21 mph    
Visibility 10 miles    
Events      
T = Trace of Precipitation, MM = Missing Value Source: NWS Daily Summary

Daily Weather History Graph

Daily Weather History Graph

Search for Another Location

Airport or City:

Trip Planner

Search our weather history database for the weather conditions in past years. The results will help you decide how hot, cold, wet, or windy it might be!

Date:

Astronomy

Oct. 31, 2011 Rise Set
Actual Time 7:54 AM CDT 6:49 PM CDT
Civil Twilight 7:29 AM CDT 7:14 PM CDT
Nautical Twilight 7:00 AM CDT 7:43 PM CDT
Astronomical Twilight 6:31 AM CDT 8:12 PM CDT
Moon 12:56 PM CDT (10/31) 11:33 PM CDT (10/31)
Length of Visible Light 11h 45m
Length of Day
10h 54m
Waxing Crescent, 30% of the Moon is Illuminated
Oct 31
Waxing Crescent
Nov 2
First Quarter
Nov 10
Full
Nov 18
Last Quarter
Nov 25
New

Hourly Weather History & Observations

Time (CDT) Temp. Windchill Dew Point Humidity Pressure Visibility Wind Dir Wind Speed Gust Speed Precip Events Conditions
12:52 AM 46.0 °F 43.1 °F 43.0 °F 89% 30.20 in 10.0 mi SSW 5.8 mph - N/A   Clear
1:52 AM 46.9 °F - 43.0 °F 86% 30.19 in 10.0 mi SW 3.5 mph - N/A   Clear
2:52 AM 46.9 °F - 43.0 °F 86% 30.19 in 10.0 mi Calm Calm - N/A   Clear
3:52 AM 45.0 °F 43.5 °F 42.1 °F 90% 30.17 in 10.0 mi SSW 3.5 mph - N/A   Clear
4:52 AM 42.1 °F 40.2 °F 41.0 °F 96% 30.18 in 10.0 mi South 3.5 mph - N/A   Clear
5:52 AM 42.1 °F 40.2 °F 41.0 °F 96% 30.18 in 10.0 mi SSE 3.5 mph - N/A   Clear
6:52 AM 41.0 °F 39.0 °F 39.9 °F 96% 30.19 in 10.0 mi SW 3.5 mph - N/A   Clear
7:52 AM 41.0 °F 38.0 °F 39.9 °F 96% 30.20 in 10.0 mi SSW 4.6 mph - N/A   Clear
8:52 AM 44.1 °F - 42.1 °F 93% 30.21 in 10.0 mi Calm Calm - N/A   Clear
9:52 AM 52.0 °F - 46.0 °F 80% 30.20 in 10.0 mi Calm Calm - N/A   Clear
10:52 AM 59.0 °F - 46.9 °F 64% 30.20 in 10.0 mi Variable 3.5 mph - N/A   Clear
11:52 AM 64.9 °F - 46.9 °F 52% 30.18 in - SSW 8.1 mph - N/A   Clear
12:52 PM - - - N/A% 30.19 in 10.0 mi North - - N/A   Clear
1:52 PM 73.0 °F - 44.1 °F 35% 30.12 in 10.0 mi SW 4.6 mph - N/A   Clear
2:52 PM 75.0 °F - 42.1 °F 31% 30.09 in 10.0 mi SSW 8.1 mph - N/A   Clear
3:52 PM 75.9 °F - 44.1 °F 32% 30.06 in 10.0 mi South 9.2 mph - N/A   Clear
4:52 PM 75.9 °F - 46.9 °F 36% 30.05 in 10.0 mi South 9.2 mph - N/A   Clear
5:52 PM 75.0 °F - 43.0 °F 32% 30.04 in 10.0 mi South 10.4 mph - N/A   Clear
6:52 PM 70.0 °F - 46.9 °F 44% 30.04 in 10.0 mi South 5.8 mph - N/A   Clear
7:52 PM 63.0 °F - 48.0 °F 58% 30.06 in 10.0 mi SE 8.1 mph - N/A   Clear
8:52 PM 61.0 °F - 48.0 °F 62% 30.06 in 10.0 mi SE 8.1 mph - N/A   Clear
9:52 PM 62.1 °F - 48.0 °F 60% 30.05 in 10.0 mi SSE 10.4 mph - N/A   Clear
10:52 PM 61.0 °F - 48.0 °F 62% 30.04 in 10.0 mi SSE 8.1 mph - N/A   Clear
11:52 PM 61.0 °F - 48.0 °F 62% 30.03 in 10.0 mi South 9.2 mph - N/A   Clear